Location: Campolattaro
(41.2833°N, 14.7333°E)
Time: 20:38:31
(UTC+00:00)

Cosmos 1733 - Pass Details

Date: 19 May 2025
Orbit: 374 x 381 km, 82.5° (Epoch: 20 June)

Event Time Altitude Azimuth Distance (km) Brightness Sun altitude
Rises 20:34:51 0° 346° (NNW) 2,305 7.7 -20.4°
Reaches altitude 10° 20:36:54 10° 341° (NNW) 1,441 6.5 -20.6°
Enters shadow 20:39:54 49° 267° (W) 519 3.3 -20.9°
